Location: Montichiari
(45.4167°N, 10.3833°E)
Time: 16:20:57
(UTC+00:00)

Daily predictions for brighter satellites

Satellite Brightness Start Highest point End
(mag) Time Altitude Azimuth Time Altitude Azimuth Time Altitude Azimuth
CENTAUR R/B 4.0 17:15:53 10° NW 17:23:32 56° WSW 17:31:37 10° SSE
Cosmos 2333 Rocket 4.1 17:21:23 10° NNE 17:23:33 12° NE 17:25:42 10° ENE
Cosmos 407 Rocket 3.9 17:18:55 10° S 17:23:51 43° ESE 17:28:51 10° NNE
Cosmos 2082 Rocket 4.1 17:21:16 10° WSW 17:26:11 29° NW 17:31:10 10° N
SL-16 R/B 2.2 17:23:10 10° NNW 17:28:54 86° ENE 17:34:34 10° SSE
DELTA 2 R/B (1) 4.4 17:24:46 10° WSW 17:30:07 46° S 17:35:27 10° ESE
Cosmos 1633 4.0 17:27:45 10° SE 17:30:25 19° E 17:33:06 10° NE
Meteor 1-18 Rocket 4.2 17:25:46 10° N 17:31:21 80° E 17:36:58 10° SSE
BREEZE-M DEB (TANK) 3.0 17:29:58 10° WNW 17:32:28 50° NNE 17:37:46 10° E
Cosmos 2151 Rocket 3.9 17:30:56 10° SSE 17:35:14 46° E 17:39:34 10° NNE
Cosmos 44 4.1 17:31:10 10° NW 17:35:28 49° WSW 17:39:38 10° SSE
Okean 1 Rocket 4.3 17:36:46 10° SE 17:40:04 20° E 17:43:23 10° NE
TSX-5 4.3 17:39:57 10° SSE 17:42:37 25° ESE 17:45:20 10° NE
Tiangong 2 2.8 17:40:18 10° W 17:42:59 27° SSW 17:45:39 10° SE
Thor Agena Rocket 4.3 17:38:11 10° N 17:43:08 54° WNW 17:48:02 10° SW
NOSS 2-2 (E) 4.5 17:39:55 10° WSW 17:43:59 50° NW 17:48:53 10° NNE
Cosmos 2322 Rocket 2.6 17:40:40 10° NNW 17:46:15 69° WSW 17:51:49 10° SSE
Meteor 1-20 Rocket 4.3 17:41:04 10° S 17:46:53 78° E 17:52:45 10° NNE
Cosmos 1140 Rocket 4.3 17:42:44 10° SSE 17:47:07 29° E 17:51:31 10° NE
DMSP B5D1-3 4.5 17:43:11 10° NNE 17:48:22 82° ESE 17:53:31 10° SSW
Gbstr 26 Del rocket 4.4 17:46:04 10° S 17:48:27 16° SE 17:50:01 13° ESE
Cosmos 1190 Rocket 4.0 17:44:57 10° SSW 17:50:08 84° ESE 17:55:22 10° NNE
USA 215 4.3 17:48:58 10° NE 17:54:56 39° NNW 18:00:53 10° W
SKYMED 2 4.4 17:51:48 10° N 17:56:03 56° WNW 18:00:17 10° SSW
DNEPR-1 R/B 4.5 17:53:29 10° NW 17:57:37 49° WSW 18:01:42 10° SSE
Okean 1-7 Rocket 4.4 17:54:38 10° NNE 17:58:39 29° ENE 18:02:35 10° SE
Nadezhda 1 Rocket 4.4 17:52:42 10° NNW 17:58:44 65° W 18:04:42 10° S
Spot 2 Rocket 3.8 17:54:46 10° SE 17:59:32 44° ENE 18:04:21 10° N
Meteor 1-13 Rocket 4.2 17:54:28 10° N 17:59:58 60° ENE 18:05:30 10° SSE
Cosmos 2322 3.8 17:54:35 10° NNW 18:00:16 58° ENE 18:05:52 10° SE
FENGYUN 3A 3.7 17:56:50 10° SSE 18:02:08 59° ENE 18:07:29 10° N
Cosmos 1025 Rocket 4.1 17:59:21 10° NNE 18:02:58 25° ENE 18:05:21 16° ESE
Cosmos 1340 2.6 17:59:37 10° N 18:03:25 68° ENE 18:07:11 10° SSE
SJ-6B 2.9 18:03:10 10° SSE 18:07:12 85° WSW 18:11:10 10° NNW
Cosmos 1536 Rocket 3.8 18:08:18 10° NNW 18:12:47 74° W 18:17:14 10° S
COSMOS 2428 3.1 18:08:39 10° NNW 18:14:02 41° NE 18:17:49 18° ESE
Cosmos 2237 4.4 18:08:57 10° NNW 18:14:34 51° ENE 18:19:27 13° SE
Cosmos 2181 Rocket 3.9 18:08:51 10° N 18:15:07 77° E 18:21:26 10° SSE
Meteor 2-4 Rocket 3.8 18:10:20 10° N 18:15:48 51° ENE 18:21:04 10° SSE
Envisat 4.1 18:15:01 21° E 18:16:01 22° ENE 18:19:54 10° NNE
ATLAS CENTAUR R/B 4.4 18:15:59 10° NNW 18:16:19 10° NNW 18:16:40 10° NNW
Cosmos 1954 Rocket 3.9 18:12:21 10° S 18:17:30 71° ESE 18:22:44 10° NNE
Genesis I 3.5 18:16:59 10° NNW 18:20:48 46° NE 18:22:16 31° ESE
Cosmos 2237 Rocket 3.6 18:17:07 10° N 18:21:15 20° NE 18:22:25 19° ENE
GEOS 3 Rocket 3.6 18:19:29 10° NE 18:24:37 62° SE 18:29:51 10° SSW
ALOS 2.3 18:20:03 10° SSE 18:24:43 85° WSW 18:29:26 10° NNW
Spot 1 4.3 18:23:06 23° SE 18:25:13 43° ENE 18:29:09 10° N
Cosmos 1536 2.8 18:29:08 10° S 18:33:02 55° E 18:36:57 10° NNE
Resurs 01 Rocket 1.6 18:29:20 10° SSE 18:33:45 87° WSW 18:38:12 10° NNW
CZ-2D R/B 3.1 18:31:55 21° SSE 18:34:17 62° ENE 18:38:05 10° N
Cosmos 2074 Rocket 4.1 18:28:53 10° SSE 18:34:53 52° E 18:40:57 10° NNE
SAR-Lupe-1 4.1 18:34:20 46° ESE 18:34:54 51° ENE 18:38:25 10° N
Cosmos 1709 Rocket 4.2 18:29:10 10° SSW 18:35:23 72° W 18:41:33 10° N
Cosmos 405 Rocket 4.3 18:32:51 10° NNE 18:34:55 22° NE 18:34:55 22° NE
Cosmos 2184 Rocket 4.1 18:30:22 10° SSE 18:36:26 51° E 18:42:28 10° NNE
Meteor 1-11 Rocket 3.7 18:32:02 10° S 18:37:49 85° E 18:43:46 10° NNE
Cosmos 2360 Rocket 2.5 18:32:19 10° NNW 18:37:57 68° WSW 18:43:34 10° SSE
Cosmos 2219 3.5 18:33:23 10° S 18:38:45 42° ESE 18:42:20 20° NE
SAR-Lupe-4 3.4 18:38:15 37° SSE 18:39:32 70° ENE 18:43:07 10° N
Cosmos 2219 Rocket 2.7 18:35:20 10° NNW 18:40:33 38° NE 18:41:45 34° E
H-2A R/B 2.7 18:38:23 10° S 18:42:05 79° WSW 18:45:51 10° NNW
Cosmos 1300 Rocket 3.9 18:40:49 10° SSW 18:45:12 66° W 18:49:38 10° N
Cosmos 1238 Rocket 4.2 18:49:37 10° NNW 18:52:18 28° W 18:54:53 10° SSW
SL-16 R/B 3.9 18:49:57 10° N 18:53:10 17° NE 18:53:10 17° NE
Nadezhda 3 Rocket 4.3 18:48:37 10° N 18:54:26 42° ENE 18:55:07 40° E
Resurs 1-3 4.0 18:50:19 10° S 18:54:39 63° W 18:59:02 10° NNW
Cosmos 1818 4.4 18:52:19 10° WSW 18:57:36 50° NW 19:02:51 10° NNE
Cosmos 1741 Rocket 3.8 18:53:49 10° SSW 18:59:02 77° ESE 19:04:16 10° NNE
Cosmos 2285 Rocket 3.9 18:54:35 10° NNW 19:01:04 71° ENE 19:03:52 36° SE
Cosmos 2154 Rocket 4.2 19:05:31 45° E 19:05:31 45° E 19:11:13 10° NNE
Helios 1A 3.1 19:04:37 38° S 19:06:07 72° WSW 19:10:17 10° NNW
Cosmos 2333 Rocket 2.4 19:03:40 10° NNW 19:09:17 51° ENE 19:09:25 51° ENE
Cosmos 1570 Rocket 4.4 19:05:53 10° NNW 19:11:02 60° WSW 19:14:26 21° S
Okean 1 Rocket 4.4 19:13:27 10° SW 19:17:41 40° WNW 19:21:56 10° N
Cosmos 1980 4.1 19:14:26 10° NNW 19:19:18 47° NE 19:19:18 47° NE
Cosmos 1892 Rocket 4.4 19:16:17 10° N 19:19:07 40° N 19:19:07 40° N
Helios 1B rocket 4.1 19:17:36 10° N 19:24:04 25° SSW 19:25:51 10° SSW
Meteor 2-13 Rocket 4.2 19:17:33 10° S 19:23:36 78° E 19:29:42 10° NNE
USA 229 DEB 3.7 19:17:45 10° NW 19:24:55 86° SW 19:27:07 49° SSE
USA 229 3.7 19:17:51 10° NW 19:25:01 86° SW 19:27:11 50° SSE
Okean 2 4.4 19:27:01 10° NNW 19:30:11 45° NW 19:30:11 45° NW
Cosmos 468 Rocket 4.2 19:31:33 10° NNW 19:35:57 63° NNW 19:35:57 63° NNW
USA 215 4.4 19:35:07 28° NNE 19:36:58 32° N 19:42:37 10° NW
NOSS 3-1 (A) 4.2 19:30:18 10° NNW 19:37:30 52° NE 19:38:02 51° NE
NOSS 0 Rocket 3.8 19:33:32 10° NNW 19:39:38 84° NNE 19:39:38 84° NNE
ATLAS 2AS CENTAUR R/B 4.1 19:35:54 10° NNW 19:42:45 28° NNE 19:43:48 28° NE
Envisat 3.7 19:55:12 50° WNW 19:55:12 50° WNW 19:59:40 10° NNW
NOSS 3-1 (C) 3.9 19:50:29 10° NW 19:57:59 76° NE 19:58:02 76° NE
COSMOS 2428 4.1 19:53:09 10° NW 19:58:12 33° WSW 19:59:55 28° SW
ERS-1 Rocket 4.4 20:05:30 33° NNW 20:05:30 33° NNW 20:08:16 10° NNW
Cosmos 2237 Rocket 3.0 20:00:19 10° NNW 20:04:17 46° NNW 20:04:17 46° NNW
H-2A R/B 4.4 20:13:07 15° N 20:13:07 15° N 20:14:01 10° N
Cosmos 2219 Rocket 3.6 20:19:23 10° NW 20:23:31 34° W 20:23:31 34° W
SL-16 R/B 4.1 20:32:56 10° NNW 20:35:04 24° NNW 20:35:04 24° NNW
Cosmos 2333 Rocket 4.3 20:48:29 10° NW 20:51:28 23° WNW 20:51:28 23° WNW
ATLAS 2AS CENTAUR R/B 4.4 21:27:07 10° NW 21:31:15 33° NNW 21:31:15 33° NNW
